Farmington, NM

6:54 PM MST on January 19, 2017 (GMT -0700)
Four Corners Regional

Weather History for KFMN - October, 2011

Change the Weather History Date:

Wednesday, October 19, 2011

  Actual Average Record
Temperature  
Mean Temperature 51 °F -  
Max Temperature 70 °F 64 °F 80 °F (2003)
Min Temperature 34 °F 35 °F 26 °F (2006)
Degree Days  
Heating Degree Days 14    
Growing Degree Days 1 (Base 50)    
Moisture  
Dew Point 16 °F    
Average Humidity 32    
Maximum Humidity 64    
Minimum Humidity 10    
Precipitation  
Precipitation 0.00 in - - ()
Sea Level Pressure  
Sea Level Pressure 30.10 in    
Wind  
Wind Speed 3 mph (ENE)    
Max Wind Speed 7 mph    
Max Gust Speed -    
Visibility 10 miles    
Events      
Averages and records for this station are not official NWS values.
T = Trace of Precipitation, MM = Missing Value Source: NWS Daily Summary

Daily Weather History Graph

Daily Weather History Graph

Search for Another Location

Airport or City:

Trip Planner

Search our weather history database for the weather conditions in past years. The results will help you decide how hot, cold, wet, or windy it might be!

Date:

Astronomy

Oct. 19, 2011 Rise Set
Actual Time 7:23 AM MDT 6:31 PM MDT
Civil Twilight 6:57 AM MDT 6:57 PM MDT
Nautical Twilight 6:27 AM MDT 7:27 PM MDT
Astronomical Twilight 5:57 AM MDT 7:57 PM MDT
Moon No Moon Rise 1:52 PM MDT (10/19)
Length of Visible Light 11h 59m
Length of Day
11h 07m
Waning Gibbous, 54% of the Moon is Illuminated
Oct 19
Waning Gibbous
Oct 19
Last Quarter
Oct 26
New
Nov 2
First Quarter
Nov 10
Full

Hourly Weather History & Observations

Time (MDT) Temp. Windchill Dew Point Humidity Pressure Visibility Wind Dir Wind Speed Gust Speed Precip Events Conditions
12:53 AM 39.9 °F - 16.0 °F 38% 30.17 in 10.0 mi Calm Calm - N/A   Clear
1:53 AM 37.9 °F 35.5 °F 15.1 °F 39% 30.16 in 10.0 mi NNE 3.5 mph - N/A   Clear
2:53 AM 35.1 °F - 17.1 °F 48% 30.16 in 10.0 mi Calm Calm - N/A   Clear
3:53 AM 35.1 °F 32.2 °F 19.9 °F 54% 30.14 in 10.0 mi ENE 3.5 mph - N/A   Clear
5:53 AM 35.1 °F 29.3 °F 21.9 °F 59% 30.16 in 10.0 mi East 6.9 mph - N/A   Clear
6:53 AM 35.1 °F 32.2 °F 23.0 °F 61% 30.19 in 10.0 mi ENE 3.5 mph - N/A   Clear
7:53 AM 34.0 °F 28.0 °F 23.0 °F 64% 30.21 in 10.0 mi East 6.9 mph - N/A   Clear
8:53 AM 41.0 °F 37.1 °F 24.1 °F 51% 30.20 in 10.0 mi East 5.8 mph - N/A   Clear
10:53 AM 53.1 °F - 24.1 °F 32% 30.16 in 10.0 mi East 5.8 mph - N/A   Clear
11:53 AM 57.0 °F - 17.1 °F 21% 30.13 in 10.0 mi Calm Calm - N/A   Clear
12:53 PM 62.1 °F - 18.0 °F 18% 30.11 in 10.0 mi Variable 3.5 mph - N/A   Clear
1:53 PM 64.0 °F - 14.0 °F 14% 30.07 in 10.0 mi Calm Calm - N/A   Clear
2:53 PM 66.9 °F - 12.0 °F 12% 30.03 in 10.0 mi Calm Calm - N/A   Clear
3:53 PM 68.0 °F - 12.0 °F 11% 30.01 in 10.0 mi Calm Calm - N/A   Clear
4:53 PM 68.0 °F - 9.0 °F 10% 29.99 in 10.0 mi West 5.8 mph - N/A   Clear
5:53 PM 66.9 °F - 7.0 °F 10% 30.00 in 10.0 mi WNW 6.9 mph - N/A   Clear
6:53 PM 59.0 °F - 10.9 °F 15% 30.02 in 10.0 mi Calm Calm - N/A   Clear
7:53 PM 55.9 °F - 14.0 °F 19% 30.03 in 10.0 mi SSW 3.5 mph - N/A   Clear
8:53 PM 48.0 °F - 14.0 °F 26% 30.04 in 10.0 mi Calm Calm - N/A   Clear
9:53 PM 44.1 °F 40.1 °F 15.1 °F 31% 30.05 in 10.0 mi NE 6.9 mph - N/A   Clear
10:53 PM 43.0 °F 39.5 °F 14.0 °F 31% 30.04 in 10.0 mi NNE 5.8 mph - N/A   Clear
11:53 PM 39.9 °F 36.7 °F 15.1 °F 36% 30.03 in 10.0 mi ENE 4.6 mph - N/A   Clear